Location: Chiroubles
(46.1812°N, 4.6660°E)
Time: 15:45:10
(UTC+00:00)

Transit 4A - Pass Details

Date: 02 December 2020
Orbit: 864 x 980 km, 66.8° (Epoch: 26 January)

Event Time Altitude Azimuth Distance (km) Brightness Sun altitude
Rises 08:17:51 0° 243° (WSW) 3,641 10.8 9.0°
Reaches altitude 10° 08:20:38 10° 252° (WSW) 2,710 10.1 9.3°
Maximum altitude 08:26:24 35° 317° (NW) 1,526 8.7 10.0°
Drops below altitude 10° 08:32:14 10° 22° (NNE) 2,741 10.1 10.7°
Sets 08:35:05 0° 32° (NNE) 3,689 10.8 11.0°
